Location: *
(47.8756°S, 176.6775°E)
Time: 12:32:05
(UTC+00:00)

Daily predictions for brighter satellites

Satellite Brightness Start Highest point End
(mag) Time Altitude Azimuth Time Altitude Azimuth Time Altitude Azimuth
ATLAS 3B R/B 4.4 15:38:42 25° SSE 15:38:42 25° SSE 15:41:56 10° SE
ATLAS 5 CENTAUR R/B 4.1 15:48:27 30° NE 15:49:35 31° ENE 15:55:29 10° ESE
BREEZE-M TANK 4.3 16:08:49 50° ENE 16:08:49 50° ENE 16:16:55 10° E
Cosmos 2369 Rocket 3.9 16:11:51 27° SSE 16:12:49 28° SE 16:17:41 10° ENE
SJ 16-02 3.7 16:18:21 22° ESE 16:18:21 22° ESE 16:21:05 10° ENE
Cosmos 2237 Rocket 3.7 16:25:39 28° SSE 16:25:39 28° SSE 16:28:14 10° SSE
Cosmos 1943 Rocket 2.7 16:32:37 55° E 16:32:37 55° E 16:37:20 10° NE
USA 234 3.2 16:33:32 10° SE 16:40:11 79° NE 16:40:44 74° NNW
SL-16 R/B 2.3 16:46:25 70° NE 16:46:37 71° ENE 16:52:22 10° SSE
NOSS 3-1 (C) 4.0 16:47:07 66° WSW 16:47:54 69° SW 16:55:26 10° SE
Cosmos 2219 Rocket 4.3 16:55:04 14° S 16:55:04 14° S 16:56:14 10° S
Cosmos 1153 Rocket 4.4 16:47:16 10° S 16:53:49 87° W 17:00:16 10° N
Cosmos 2100 Rocket 4.4 16:48:25 10° S 16:54:49 64° ESE 17:01:11 10° NNE
USA 229 DEB 3.8 16:56:02 58° NW 16:57:45 83° SW 17:05:06 10° SE
USA 229 3.8 16:56:05 58° NW 16:57:51 84° SW 17:05:11 10° SE
USA 306 4.3 17:00:53 33° SE 17:00:53 33° SE 17:04:01 10° ESE
Cosmos 1300 4.2 17:06:55 31° NE 17:06:55 31° NE 17:09:07 10° NNE
SMAP 3.9 17:01:48 10° NE 17:06:19 49° ESE 17:10:14 14° S
ISS -1.7 17:08:03 28° ENE 17:08:03 28° ENE 17:10:15 10° ESE
deb Chang Zheng 4 4.3 17:04:34 10° NE 17:08:45 50° ESE 17:10:35 30° S
Lacrosse 4 Rocket 1.6 17:13:01 74° NE 17:13:01 74° NE 17:17:07 10° NNE
NOSS 3-1 (A) 4.0 17:16:30 39° WNW 17:20:02 70° SW 17:27:34 10° SE
Meteor 2-20 Rocket 4.4 17:17:14 30° NNW 17:20:22 64° WSW 17:26:36 10° S
Radarsat Rocket 4.3 17:16:43 10° NNE 17:22:50 75° ESE 17:29:43 10° SSW
MOS 1 Rocket 3.1 17:19:36 10° SSE 17:24:02 82° E 17:28:34 10° N
ATLAS 3B R/B 4.2 17:25:57 20° SSW 17:28:08 22° S 17:33:32 10° SE
H-2A R/B 3.8 17:26:40 10° NE 17:31:05 31° ESE 17:35:40 10° S
Cosmos 1939 Rocket 3.3 17:27:18 10° NNE 17:31:12 59° ESE 17:34:04 18° S
Cosmos 1727 Rocket 4.0 17:24:58 10° NNW 17:31:14 57° WSW 17:37:36 10° S
CENTAUR R/B 3.8 17:29:04 17° SSW 17:32:34 28° SSE 17:37:14 10° E
ATLAS 5 CENTAUR R/B 2.6 17:30:04 29° NW 17:34:04 75° SW 17:40:45 10° SE
CZ-4 R/B 4.2 17:32:47 10° E 17:34:56 14° ESE 17:37:04 10° SSE
EXPRESS MD2 3.5 17:35:41 49° N 17:36:13 55° NNE 17:41:24 10° ESE
Cosmos 2333 Rocket 4.4 17:37:28 11° SSW 17:37:28 11° SSW 17:38:31 10° S
Cosmos 1025 Rocket 4.4 17:40:20 26° SSW 17:40:20 26° SSW 17:42:34 10° S
Cosmos 1656 Rocket 3.9 17:34:51 18° SSW 17:38:59 69° ESE 17:44:34 10° NE
Cosmos 1777 Rocket 4.4 17:40:49 41° WNW 17:40:49 41° WNW 17:45:32 10° N
MOS 1-B 4.4 17:35:03 10° NNE 17:40:53 82° ESE 17:46:48 10° SSW
Genesis I 3.5 17:40:49 44° S 17:41:44 60° SE 17:45:25 10° NE
Meteor 2-11 Rocket 4.4 17:40:26 10° SSW 17:46:35 60° W 17:52:37 10° N
Cosmos 2297 4.4 17:49:26 31° WNW 17:49:26 31° WNW 17:54:05 10° NNW
Cosmos 1459 Rocket 4.0 17:44:37 10° SSW 17:50:45 58° W 17:56:44 10° N
Cosmos 2263 4.2 17:46:14 17° SSW 17:50:50 89° WNW 17:56:41 10° NNE
Meteor 1-24 Rocket 3.5 17:48:58 10° NNW 17:54:26 85° W 17:59:52 10° S
Cosmos 2173 Rocket 4.1 17:48:24 10° SSW 17:54:32 53° W 18:00:39 10° NNW
SJ 16-02 1.6 17:55:23 39° WSW 17:56:16 44° WNW 18:00:30 10° N
CZ-4B R/B 3.4 17:51:27 10° NNE 17:56:59 79° ESE 18:02:41 10° SSW
Cosmos 2369 Rocket 2.2 17:53:40 22° SW 17:57:16 61° WNW 18:02:51 10° N
USA 307 3.5 17:57:57 30° SW 17:59:41 48° SSE 18:03:54 10° E
Cosmos 1346 Rocket 2.9 17:58:28 10° NNW 18:02:20 51° WSW 18:06:18 10° S
Meteor 2-5 Rocket 3.7 17:56:45 10° NNW 18:02:21 62° WSW 18:07:57 10° S
Cosmos 990 Rocket 4.0 17:58:26 10° SSW 18:03:49 85° ESE 18:09:06 10° NNE
Cosmos 1455 2.9 18:01:37 10° S 18:05:31 57° ESE 18:09:22 10° NNE
Cosmos 1184 Rocket 2.6 18:03:44 10° NNW 18:07:02 84° W 18:10:23 10° S
Okean O Rocket 1.7 18:02:53 10° NNE 18:07:19 79° ESE 18:11:48 10° SSW
Cosmos 2237 Rocket 3.7 18:07:29 17° SW 18:07:39 17° SW 18:11:23 10° S
Cosmos 2016 Rocket 4.0 18:02:38 10° SSW 18:08:50 62° W 18:14:53 10° N
Cosmos 2123 Rocket 3.9 18:04:31 10° NNW 18:10:46 74° W 18:17:07 10° S
BREEZE-M DEB (TANK) 3.2 18:09:43 27° WNW 18:11:29 88° NNE 18:20:00 10° ESE
CORIOLIS 4.3 18:07:33 10° N 18:12:52 53° W 18:18:14 10° SSW
Cosmos 1603 3.8 18:07:59 10° NNW 18:13:45 87° ENE 18:19:36 10° SSE
Cosmos 1943 Rocket 3.2 18:14:12 23° W 18:15:02 23° WNW 18:19:21 10° NNW
IRAS Rocket 4.4 18:10:25 10° SSE 18:16:10 82° ENE 18:21:49 10° NNW
USA 305 3.3 18:13:42 24° SW 18:16:13 58° SSE 18:20:32 10° ENE
USA 308 3.4 18:14:11 23° SW 18:16:40 55° SSE 18:20:57 10° E
USA 290 3.1 18:13:30 10° N 18:16:44 54° ENE 18:20:01 10° SSE
Cosmos 389 Rocket 4.3 18:18:22 16° NW 18:18:22 16° NW 18:19:27 10° NW
PAYLOAD B 4.3 18:11:51 10° N 18:17:15 53° W 18:22:44 10° SSW
Cosmos 1536 Rocket 4.3 18:18:04 10° NW 18:22:08 32° WSW 18:26:15 10° S
USA 234 3.6 18:16:39 10° SE 18:22:59 51° SSW 18:28:05 16° W
H-2A R/B 2.7 18:19:43 10° NNE 18:24:10 88° ESE 18:28:47 10° SSW
CZ-2C R/B 3.6 18:23:33 10° NNW 18:28:40 42° W 18:34:06 10° SSW
Meteor 2-10 Rocket 4.0 18:24:18 10° SSW 18:29:36 43° W 18:34:38 10° NNW
USA 281 3.7 18:23:07 10° SSE 18:29:45 66° ENE 18:36:19 10° NNW
SL-16 R/B 3.2 18:28:21 17° W 18:31:18 25° SW 18:36:03 10° S
Landsat 5 3.2 18:27:43 10° S 18:31:37 65° WSW 18:35:33 10° NNW
Cosmos 1898 Rocket 3.5 18:27:21 10° SSW 18:32:46 72° WNW 18:38:05 10° NNE
Feng Yun 1-1 Rocket 4.4 18:27:30 10° NNE 18:32:55 78° ESE 18:38:28 10° SSW
Cosmos 1703 4.2 18:29:44 10° N 18:33:34 52° E 18:37:29 10° SSE
Spot 2 4.0 18:29:40 10° N 18:34:01 65° WNW 18:38:12 10° SSW
Cosmos 2061 Rocket 4.4 18:28:04 10° SSW 18:34:08 45° W 18:40:12 10° NNW
Cosmos 2084 Rocket 3.9 18:33:06 10° WNW 18:37:48 53° SW 18:42:29 10° SE
COSMO-SKYMED 1 2.5 18:33:59 10° SSE 18:38:27 82° WSW 18:42:50 10° NNW
USA 306 3.0 18:36:57 16° WSW 18:40:23 74° SSE 18:44:42 10° ENE
NOSS 3-2 (A) 3.6 18:34:12 10° SW 18:40:52 71° SE 18:46:34 10° NE
Cosmos 2058 Rocket 3.2 18:37:12 10° S 18:41:50 89° E 18:46:23 10° N
SL-08 RB Rocket 4.5 18:38:33 10° NNE 18:42:57 55° ESE 18:47:24 10° S
ISS -3.6 18:41:02 15° W 18:43:48 61° SSW 18:47:14 10° ESE
SMAP 4.3 18:40:17 10° NW 18:43:55 22° W 18:47:36 10° SW
Cosmos 1726 Rocket 3.8 18:40:41 10° SSW 18:45:06 53° W 18:49:29 10° N
Meteor 1-4 Rocket 2.5 18:42:58 10° SSW 18:46:41 77° W 18:50:16 10° N
Cosmos 1763 Rocket 3.4 18:41:35 10° NNW 18:46:44 66° WSW 18:51:54 10° SSE
Cosmos 2228 3.9 18:46:29 10° SSW 18:50:21 30° W 18:54:13 10° NNW
Lacrosse 4 Rocket 3.4 18:49:22 12° W 18:50:36 13° WNW 18:52:36 10° NW
Meteor 1-21 Rocket 4.4 18:45:05 10° N 18:50:40 82° E 18:56:19 10° SSE
USA 276 3.1 18:49:20 10° NW 18:52:27 48° NNE 18:55:36 10° ESE
Okean-O 3.2 18:52:15 10° NNE 18:56:41 61° ESE 19:01:09 10° S
SL-24 DEB 4.4 18:53:04 10° N 18:57:42 56° W 19:02:26 10° SSW
CZ-2D R/B 4.3 18:56:40 10° NNW 18:59:55 26° W 19:03:13 10° SW
HJ-1C 3.6 18:57:32 10° NNE 19:00:53 76° ESE 19:04:18 10° S
Cosmos 1441 Rocket 3.8 18:57:33 10° NW 19:01:21 39° WSW 19:05:09 10° S
Iridium 2 4.3 19:00:14 10° N 19:04:01 62° E 19:07:51 10° S
CZ-4C R/B 3.1 18:58:25 10° NNW 19:06:41 82° NE 19:13:39 10° SE
SJ-11-01 4.4 19:02:23 10° N 19:07:01 56° W 19:11:43 10° SSW
Cosmos 1464 Rocket 4.2 19:01:20 10° S 19:07:39 83° E 19:13:58 10° N
NOSS 3-2 (C) 3.8 19:01:44 10° SW 19:08:24 66° SE 19:14:05 10° NE
CZ-4 R/B 1.4 19:05:36 10° N 19:09:28 61° W 19:13:23 10° SSW
Cosmos 1943 3.6 19:04:44 10° WNW 19:10:04 40° SW 19:15:26 10° SSE
H-2A R/B 2.5 19:05:36 10° NNW 19:10:22 41° W 19:15:20 10° SSW
Cosmos 1328 3.9 19:06:26 10° N 19:10:25 83° E 19:14:25 10° S
ARGOS 3.2 19:05:29 10° N 19:10:50 64° WNW 19:16:16 10° SSW
ERBS 4.0 19:09:34 10° SW 19:12:24 23° SSE 19:15:14 10° ESE
USA 186 3.6 19:10:39 10° NE 19:12:48 25° ESE 19:15:08 10° SSE
CZ-4C R/B 4.2 19:10:40 10° SSW 19:13:32 23° WSW 19:16:25 10° WNW
Meteor 2-1 Rocket 4.4 19:09:51 10° SSW 19:15:22 52° W 19:20:44 10° N
